[[{"header":{"parameterUnit":"m.s-1","parameterCategory":1,"la1":30.2992,"la2":30.254,"lo1":-89.0895,"lo2":-89.0443,"dy":0.0025,"dx":0.0025,"nx":19,"ny":19,"refTime":"2026-03-17T09:00:00:Z","depth":0,"parameterNumber":2,"parameterNumberName":"U-component_of_WINDS"},"data":[0,0,0,-0.4725,-0.4728,-0.4858,-0.4859,-0.5016,-0.5018,0,0,0,0,0,0,0,0,0,0,0,-0.4677,-0.4678,-0.4725,-0.4728,-0.4858,-0.4859,-0.5016,-0.5018,0,0,0,0,0,0,0,0,0,0,0,-0.4677,-0.4678,-0.4678,-0.4728,-0.4858,-0.4859,-0.5016,-0.4921,0,0,0,0,0,0,0,0,0,0,-0.4797,-0.4742,-0.4677,-0.4678,-0.4729,-0.4858,-0.4859,-0.4917,-0.4927,-0.4952,0,-0.4968,0,-0.4995,-0.5027,-0.5028,0,0,0,-0.4736,-0.4734,-0.4777,-0.4679,-0.473,-0.4858,-0.4802,-0.4923,-0.4934,-0.4965,-0.4971,-0.4977,-0.4998,-0.5028,-0.5029,-0.5137,-0.5137,0,0,-0.4728,-0.4696,-0.4769,-0.4784,-0.476,-0.4797,-0.4806,-0.493,-0.4935,-0.4971,-0.4981,-0.5,-0.5029,-0.503,-0.5137,-0.5137,0,0,0,-0.4702,-0.4691,-0.4732,-0.4777,-0.4801,-0.4801,-0.4811,-0.493,-0.4945,-0.4982,-0.5002,-0.503,-0.5032,-0.5137,-0.5137,-0.5112,0,0,0,-0.4698,-0.4676,-0.4728,-0.471,-0.4798,-0.4866,-0.4807,-0.4937,-0.4952,-0.5001,-0.503,-0.5033,-0.5137,-0.5137,-0.5113,-0.5107,0,0,0,-0.4672,-0.4673,-0.4688,-0.4708,-0.4762,-0.4865,-0.4888,-0.4941,-0.4963,-0.5028,-0.5033,-0.5137,-0.5137,-0.5113,-0.5107,-0.5127,0,0,0,-0.4635,-0.4665,-0.4687,-0.4729,-0.4761,-0.4847,-0.4888,-0.4955,-0.5007,-0.5031,-0.5137,-0.5137,-0.5113,-0.5108,-0.5127,-0.5137,-0.5138,0,0,-0.4655,-0.4666,-0.4694,-0.4717,-0.4791,-0.483,-0.4902,-0.4982,-0.5019,-0.5096,-0.51,-0.5113,-0.5108,-0.5127,-0.5153,-0.5153,0,0,0,-0.469,-0.4709,-0.4736,-0.4782,-0.4842,-0.4894,-0.4965,-0.4995,-0.5062,-0.5051,-0.5125,-0.5123,-0.5136,-0.5143,-0.5143,-0.5157,-0.5138,-0.5138,-0.5138,-0.4673,-0.4717,-0.4766,-0.4825,-0.4871,-0.4944,-0.4986,-0.5039,-0.5072,-0.5088,-0.5112,-0.5122,-0.5129,-0.5129,-0.5143,-0.512,-0.512,-0.512,-0.512,-0.4708,-0.4743,-0.4784,-0.4846,-0.4893,-0.4947,-0.502,-0.5041,-0.51,-0.5108,-0.5121,-0.5127,-0.5128,-0.5143,-0.5119,-0.5119,-0.5119,-0.5119,-0.5119,-0.4703,-0.4727,-0.4762,-0.4835,-0.4887,-0.4948,-0.5002,-0.5044,-0.5084,-0.5097,-0.5127,-0.5128,-0.5135,-0.5108,-0.5108,-0.5108,-0.5108,-0.5108,-0.5108,-0.4684,-0.4724,-0.4763,-0.4829,-0.4865,-0.4919,-0.4994,-0.5032,-0.5085,-0.5111,-0.5112,-0.5144,-0.5119,-0.5113,-0.5109,-0.5109,-0.5109,-0.5109,-0.5109,-0.4705,-0.4707,-0.4767,-0.4803,-0.4886,-0.4936,-0.4988,-0.5062,-0.51,-0.5126,-0.5155,-0.5129,-0.5145,-0.5145,-0.514,-0.5144,-0.5144,-0.5144,-0.5144,-0.4701,-0.4712,-0.4784,-0.4839,-0.4899,-0.4952,-0.5022,-0.5082,-0.5144,-0.5171,-0.5177,-0.5173,-0.5171,-0.5188,-0.5187,-0.5184,-0.5198,-0.5198,-0.5198,-0.4716,-0.4735,-0.4785,-0.4844,-0.4912,-0.4971,-0.5039,-0.5104,-0.5175,-0.5201,-0.5194,-0.5191,-0.5187,-0.5182,-0.5209,-0.5207,-0.5201,0,0]},{"header":{"parameterUnit":"m.s-1","parameterCategory":1,"la1":30.2992,"la2":30.254,"lo1":-89.0895,"lo2":-89.0443,"dy":0.0025,"dx":0.0025,"nx":19,"ny":19,"refTime":"2026-03-17T09:00:00:Z","depth":0,"parameterNumber":3,"parameterNumberName":"V-component_of_WINDS"},"data":[0,0,0,0.6396,0.6397,0.6442,0.6442,0.6506,0.6506,0,0,0,0,0,0,0,0,0,0,0,0.6389,0.639,0.6396,0.6398,0.6442,0.6442,0.6505,0.6506,0,0,0,0,0,0,0,0,0,0,0,0.6389,0.639,0.6391,0.6398,0.6442,0.6442,0.6505,0.6469,0,0,0,0,0,0,0,0,0,0,0.6425,0.6425,0.639,0.6391,0.6398,0.6442,0.6442,0.6467,0.6471,0.6489,0,0.6508,0,0.6508,0.6511,0.6511,0,0,0,0.6393,0.6421,0.6428,0.6391,0.6399,0.6441,0.642,0.6469,0.6474,0.6495,0.6508,0.6511,0.6509,0.6511,0.6512,0.663,0.6631,0,0,0.6391,0.64,0.6424,0.6431,0.6426,0.6419,0.6422,0.6472,0.6488,0.6509,0.6512,0.651,0.6512,0.6513,0.663,0.663,0,0,0,0.6387,0.6399,0.6404,0.6429,0.6436,0.642,0.6424,0.6485,0.6486,0.6513,0.6511,0.6512,0.6513,0.6629,0.663,0.6676,0,0,0,0.6385,0.6397,0.6403,0.641,0.6435,0.6462,0.6436,0.6483,0.6488,0.651,0.6512,0.6514,0.6628,0.6629,0.6673,0.6697,0,0,0,0.6384,0.6396,0.6405,0.641,0.6429,0.6461,0.6464,0.6484,0.6487,0.6511,0.6514,0.6627,0.6629,0.667,0.6692,0.6729,0,0,0,0.6387,0.6447,0.6406,0.6472,0.6429,0.6489,0.6464,0.6508,0.6534,0.6513,0.6628,0.663,0.667,0.6689,0.6726,0.6762,0.6778,0,0,0.6468,0.6457,0.6495,0.646,0.653,0.6482,0.6558,0.6573,0.6567,0.6609,0.6612,0.6674,0.6692,0.6729,0.6865,0.6878,0,0,0,0.6524,0.6552,0.6568,0.6593,0.6606,0.6618,0.662,0.6625,0.666,0.6591,0.6698,0.6708,0.6729,0.6745,0.6756,0.6773,0.6638,0.6638,0.6638,0.6655,0.6642,0.6703,0.6695,0.6719,0.6719,0.6738,0.6744,0.6726,0.6751,0.6763,0.6848,0.6867,0.6875,0.6893,0.6782,0.6782,0.6782,0.6782,0.6772,0.6808,0.6779,0.6828,0.6813,0.6854,0.6855,0.684,0.6875,0.6838,0.6856,0.6816,0.689,0.6904,0.6785,0.6785,0.6784,0.6784,0.6784,0.6855,0.6869,0.6874,0.6907,0.6933,0.6922,0.6956,0.6942,0.6929,0.6947,0.6957,0.6956,0.6953,0.6953,0.6953,0.6954,0.6954,0.6954,0.6954,0.6939,0.6942,0.6973,0.6989,0.7001,0.7016,0.7015,0.7027,0.7036,0.7023,0.7023,0.7,0.69,0.6874,0.6959,0.6958,0.6957,0.6957,0.6957,0.7061,0.7031,0.7078,0.709,0.7106,0.7132,0.7113,0.7137,0.7145,0.7161,0.7134,0.7063,0.705,0.7042,0.702,0.7138,0.7138,0.7138,0.7138,0.7131,0.7122,0.7166,0.7186,0.7204,0.7191,0.7242,0.724,0.7234,0.7238,0.7218,0.7189,0.7181,0.7173,0.7162,0.7141,0.7287,0.7287,0.7288,0.7204,0.7196,0.7244,0.7236,0.7247,0.7256,0.7303,0.7326,0.7313,0.7293,0.7239,0.7233,0.7185,0.7171,0.7151,0.7133,0.7095,0,0]}]]